Albany, Illinois
Current Conditions -  °F | °C
As of 3:35 AM on Thursday 23 Oct 2014 (Local Time) from KCWI Reporting Station
Clear Clear  
Wind Chill: 34°   Ceiling: Unl
Heat Index: 39°   Visibility: 10mi
Dew Point: 34°   Wind: 7mph
Humidity: 81%   Direction: 150°SSE
Pressure: 30.19"   Gusts: NA
Location:  41.79°N, 90.22°W
Report Text: KCWI 230835Z AUTO 15006KT 10SM CLR 04/01 A3019 RMK AO1
Loading
Personal Weather Stations






























Interactive Weather Map
Tropical Storm Tracking
New forecast layout! Learn more

10-Day Weather Forecast

Advertisements
Track Severe Weather on mobile